BEIDOU IGSO 1

Last updated on Tue Apr 02 2019 03:15:24 GMT+0000 (Coordinated Universal Time)

1 36828U 10036A 19091.47320159 -.00000179 00000-0 10000-3 0 9990 2 36828 54.1491 187.1711 0078224 232.7725 58.4978 1.00287747 31809
UTC large
Height (km)
Speed (km/s)
/
Latitude / Longitude
Inclination (degrees)
Orbital Period (minutes)
Azimuth
Elevation
Range (km)
Doppler Factor

Next 0 passes for location: London (51.5072 / 0.1276)

Sorry there are no passes over London.